Weather History for San Diego, CA

Change the Weather History Date:

Saturday, November 3, 2012

  Actual Average Record
Temperature  
Mean Temperature 63 °F 64 °F  
Max Temperature 69 °F 71 °F 93 °F (2010)
Min Temperature 57 °F 57 °F 47 °F (1946)
Degree Days  
Heating Degree Days 2 2  
Month to date heating degree days 3 6  
Since 1 July heating degree days 7 27  
Cooling Degree Days 0 1  
Month to date cooling degree days 0 3  
Year to date cooling degree days 883 710  
Growing Degree Days 13 (Base 50)    
Moisture  
Dew Point 56 °F    
Average Humidity 72    
Maximum Humidity 80    
Minimum Humidity 63    
Precipitation  
Precipitation 0.00 in 0.02 in 0.70 in (1850)
Month to date precipitation 0.00 0.07  
Year to date precipitation 4.16 7.87  
Since 1 July precipitation 0.70 0.84  
Snow  
Snow 0.00 in - - ()
Month to date snowfall 0.0  
Year to date snowfall 0.0  
Since 1 July snowfall 0.0  
Snow Depth 0.00 in    
Sea Level Pressure  
Sea Level Pressure 30.02 in    
Wind  
Wind Speed 4 mph (WNW)    
Max Wind Speed 15 mph    
Max Gust Speed 18 mph    
Visibility 8 miles    
Events      
T = Trace of Precipitation, MM = Missing Value Source: NWS Daily Summary

Daily Weather History Graph

Daily Weather History Graph

Search for Another Location

Airport:

Trip Planner

Search our weather history database for the weather conditions in past years. The results will help you decide how hot, cold, wet, or windy it might be!

Date:

Astronomy

Nov. 03, 2012 Rise Set
Actual Time 7:08 AM PDT 5:55 PM PDT
Civil Twilight 6:43 AM PDT 6:21 PM PDT
Nautical Twilight 6:13 AM PDT 6:50 PM PDT
Astronomical Twilight 5:44 AM PDT 7:19 PM PDT
Moon 9:45 PM PDT (11/3) 11:10 AM PDT (11/3)
Length of Visible Light 11h 38m
Length of Day
10h 46m
Waning Gibbous, 79% of the Moon is Illuminated
Nov 3
Waning Gibbous
Nov 6
Last Quarter
Nov 13
New
Nov 20
First Quarter
Nov 28
Full

Hourly Weather History & Observations

Time (PDT) Temp. Dew Point Humidity Pressure Visibility Wind Dir Wind Speed Gust Speed Precip Events Conditions
12:51 AM 59.0 °F 53.1 °F 81% 29.99 in 10.0 mi Calm Calm - N/A   Partly Cloudy
1:51 AM 59.0 °F 52.0 °F 78% 30.00 in 10.0 mi Calm Calm - N/A   Scattered Clouds
2:51 AM 57.9 °F 52.0 °F 81% 30.00 in 10.0 mi Calm Calm - N/A   Scattered Clouds
3:47 AM 57.2 °F 51.8 °F 82% 29.99 in 10.0 mi Calm Calm - N/A   Mostly Cloudy
3:51 AM 57.9 °F 52.0 °F 81% 29.99 in 10.0 mi Calm Calm - N/A   Mostly Cloudy
4:38 AM 57.2 °F 51.8 °F 82% 30.00 in 10.0 mi Calm Calm - N/A   Scattered Clouds
4:51 AM 57.0 °F 52.0 °F 83% 30.00 in 10.0 mi Calm Calm - N/A   Scattered Clouds
5:02 AM 57.2 °F 51.8 °F 82% 30.00 in 10.0 mi Calm Calm - N/A   Mostly Cloudy
5:51 AM 59.0 °F 53.1 °F 81% 30.01 in 10.0 mi Calm Calm - N/A   Mostly Cloudy
6:51 AM 59.0 °F 53.1 °F 81% 30.03 in 10.0 mi Calm Calm - N/A   Mostly Cloudy
7:51 AM 59.0 °F 53.1 °F 81% 30.04 in 8.0 mi Calm Calm - N/A   Scattered Clouds
8:51 AM 62.1 °F 55.0 °F 78% 30.06 in 9.0 mi Calm Calm - N/A   Scattered Clouds
9:51 AM 64.9 °F 55.9 °F 73% 30.05 in 10.0 mi NW 4.6 mph - N/A   Scattered Clouds
10:51 AM 68.0 °F 55.9 °F 65% 30.05 in 10.0 mi WNW 8.1 mph - N/A   Scattered Clouds
11:51 AM 69.1 °F 57.0 °F 65% 30.04 in 10.0 mi WNW 8.1 mph - N/A   Scattered Clouds
12:51 PM 69.1 °F 57.0 °F 65% 30.01 in 10.0 mi WNW 11.5 mph - N/A   Scattered Clouds
1:51 PM 68.0 °F 57.0 °F 68% 30.00 in 10.0 mi WNW 12.7 mph - N/A   Scattered Clouds
2:51 PM 68.0 °F 59.0 °F 73% 29.99 in 10.0 mi West 11.5 mph - N/A   Scattered Clouds
3:51 PM 68.0 °F 59.0 °F 73% 29.99 in 10.0 mi West 10.4 mph - N/A   Scattered Clouds
4:51 PM 66.9 °F 59.0 °F 76% 30.00 in 7.0 mi NW 5.8 mph - N/A   Scattered Clouds
5:38 PM 66.2 °F 60.8 °F 83% 30.01 in 5.0 mi WNW 5.8 mph - N/A   Haze
5:51 PM 66.0 °F 60.1 °F 81% 30.01 in 5.0 mi WNW 5.8 mph - N/A   Haze
6:51 PM 64.9 °F 59.0 °F 81% 30.03 in 7.0 mi WNW 3.5 mph - N/A   Mostly Cloudy
7:29 PM 64.4 °F 59.0 °F 83% 30.03 in 6.0 mi WNW 3.5 mph - N/A   Haze
7:51 PM 64.0 °F 59.0 °F 84% 30.03 in 6.0 mi WNW 3.5 mph - N/A   Haze
8:51 PM 64.0 °F 59.0 °F 84% 30.04 in 6.0 mi Calm Calm - N/A   Scattered Clouds
9:51 PM 64.0 °F 59.0 °F 84% 30.05 in 4.0 mi Calm Calm - N/A   Partly Cloudy
10:51 PM 63.0 °F 59.0 °F 87% 30.05 in 4.0 mi Calm Calm - N/A   Partly Cloudy
11:51 PM 62.1 °F 59.0 °F 90% 30.06 in 4.0 mi Calm Calm - N/A   Clear